Meath Environmental Platform

Observations

Time Sensor AQI SAQ Temp °C Hum % Pres Pa CO μg/m³ H₂S μg/m³ NO μg/m³ NO₂ μg/m³ O₃ μg/m³ SO₂ μg/m³ CO₂e PPM VOC PPM PM1 μg/m³ PM2.5 μg/m³ PM4 μg/m³ PM10 μg/m³ TPS µm
Thursday 13 August 2026
04:59 Trim Patrick St 2 20.9 77 38,460 0 0 1.77 5.5 32.57 4.91 6.29 10.33 11.36
04:58 Trim Market St 2 21.4 74 34,986 0 0 1.38 5.7 38.57 0 3.56 4.31 6.93
04:58 Trim Patrick St 2 20.8 78 38,460 0 0 1.72 2 32.23 4.5 6.29 8.91 9.8
04:57 Trim Market St 2 21.4 74 35,008 0 0 1.29 9.51 35.54 0 2.85 4.79 7.53
04:57 Trim Patrick St 2 20.9 78 38,460 0 0.79 1.57 10.73 27.99 4.43 5.43 8.2 9.02
04:56 Trim Patrick St 2 20.9 78 38,460 0 3.03 1.73 12.21 26.36 4.36 5.43 9.61 10.57
04:55 Trim Market St 2 21.4 74 34,701 0 0 1.16 5.36 40.47 0 0.71 2.39 4.52
04:54 Trim Patrick St 2 20.9 78 38,460 0 0 1.49 10.73 25.99 4.04 5.43 8.9 9.79
04:52 Trim Patrick St 2 20.9 78 38,460 0 5.48 1.59 11.94 30.1 4.87 4.57 8.2 9.02
04:49 Trim Market St 2 21.4 74 33,493 0 0 1.26 7.34 42.32 0 2.85 4.3 7.53
04:49 Trim Patrick St 2 20.8 78 38,460 0 2.08 1.47 7.13 31.76 4.81 5.43 8.2 9.02
04:48 Trim Market St 2 21.4 74 33,522 0.01 0 1.26 12.06 41.07 0 2.85 4.78 7.53
04:48 Trim Patrick St 2 20.9 78 38,460 0 5.21 1.55 13.42 33.08 4.5 5.43 9.61 10.57
04:47 Trim Market St 2 21.4 74 33,647 0 0 1.24 10.84 36.99 0 3.56 3.82 6.33
04:47 Trim Patrick St 2 20.9 77 38,460 0 1.63 1.55 11.21 27.89 4.22 5.43 9.63 10.59
04:46 Trim Market St 2 21.4 74 33,649 0 0 1.25 5.03 37.18 0 2.14 3.82 6.33
04:46 Trim Patrick St 2 20.8 78 38,460 0 3.24 1.62 8.57 30.14 4.47 5.43 8.91 9.8
04:45 Trim Market St 2 21.4 74 33,527 0 0 1.25 9.57 39.56 0 2.85 3.34 6.33
04:45 Trim Patrick St 2 20.9 77 38,460 0 0.57 1.61 13.29 27.19 4.3 5.43 10.34 11.37
04:44 Trim Market St 2 21.4 74 33,483 0 0 1.29 5.42 40.7 0 2.14 3.34 6.93